Weather in Hubynyha

Ukraine / Dnipropetrovsk Region     48°48′28″N   35°15′22″E
temp.,
°C
wind,
m/s
gust,
m/s
humid.,
%
clouds,
%
prec.,
mm/h
press.,
hPa
HPBL,
m
26 june, sun
sun2600:00+17ne41092100 0.8 1014278
03:00+17nne499497 1.4 1014257
06:00+17ne379447 0.4 1015251
09:00+22ene5774100 0.9 1015784
12:00+26ene6855100 0.1 10151699
15:00+27ene785178 0.1 10152049
18:00+23ne5107395 0.8 1016354
21:00+22ne51274100 0.8 1016342
27 june, mon
mon2700:00+21ne51278100 0.0 1016344
03:00+20ne6147786 0.0 1017382
06:00+18ne6137896 0.0 1018369
09:00+22ene796289 0.0 1018616
12:00+26ene894952 0.0 10181474
15:00+27ene89438 0.0 10171754
18:00+25ene68475 0.0 10181509
21:00+19ne411692 0.0 1018202
28 june, tue
tue2800:00+17ne410760 0.0 1018169
03:00+16ne47791 0.0 1018117
06:00+16ne377836 0.0 1018147
09:00+22ene4657100 0.0 1018496
12:00+27ene4642100 0.0 10171178
15:00+29ne564694 0.0 10161633
18:00+29ne465168 0.0 10151921
21:00+25ne346740 0.0 101667
29 june, wed
wed2900:00+24ne477022 0.1 1016155
03:00+19ene488765 0.1 1016129
06:00+20ene488240 0.0 1017208
09:00+25e57615 0.0 1017649
12:00+29e66466 0.0 10171658
15:00+30ene554398 0.0 10162360
18:00+26e465897 0.0 1016485
21:00+24ene5105967 0.0 1017327
30 june, thu
thu3000:00+20e51258100 0.0 1017265
03:00+18e495999 0.0 1018207
06:00+17e366480 0.0 1018160
09:00+19e2460100 0.0 1019177
12:00+24e344394 0.0 1019762
15:00+27ene343594 0.0 10181813
18:00+25ene554291 0.0 10181076
21:00+20ne45640 0.0 101971